Wind_Speed
7 7 8 8 9 10 10 9 9 9 10 9 9 9 9 9 10 10 11 11 12 12 13 14 14 15 15 15 14 14 15 17 20 23 27 31 33 35 36 37 36 35 33 31 30 29 29 30 31 33 34 35 35 35 35 35 35 35 34 32 29 28 28 29 30 31 31 30 30
3 4 5 7 8 9 8 7 7 8 10 10 9 9 9 10 10 10 10 10 10 11 12 13 14 16 17 18 18 17 17 17 19 22 25 29 32 34 36 37 37 36 35 33 32 31 31 32 33 35 36 37 37 37 37 37 37 36 35 33 31 30 30 31 32 32 32 31 30
1 1 3 5 7 7 7 7 8 9 10 11 11 11 11 11 11 10 10 9 9 9 10 12 13 15 16 18 19 20 21 21 22 24 26 28 30 32 34 36 37 37 37 35 34 33 33 33 35 36 37 37 38 38 38 39 38 36 35 34 33 32 33 33 34 33 32 31 29
4 4 5 6 7 8 8 9 10 11 12 12 13 13 13 12 12 11 10 10 10 10 11 12 13 14 14 15 17 19 21 24 26 28 29 30 31 31 32 33 35 37 38 37 37 36 35 35 36 37 38 38 38 38 39 39 38 37 36 35 35 34 34 35 35 34 33 31 29
8 8 9 9 9 10 11 12 13 13 13 13 13 13 13 13 13 12 12 12 12 12 13 13 13 12 12 13 15 18 20 23 26 29 31 32 33 34 33 32 32 34 36 37 38 38 37 37 37 38 38 39 39 39 40 39 38 37 36 35 35 36 36 35 35 34 33 31 28
12 12 11 11 12 13 15 15 15 14 13 12 12 12 13 13 14 14 14 14 14 14 13 13 12 11 12 13 16 19 21 24 27 29 31 33 34 35 36 36 35 33 33 34 36 37 37 37 37 37 38 38 39 39 39 38 37 36 35 35 35 36 36 36 35 34 32 30 27
11 10 9 9 10 11 13 14 13 12 11 10 9 9 10 11 13 14 14 14 14 14 14 13 12 12 12 14 16 19 21 24 27 29 31 32 33 35 36 37 37 37 35 31 31 32 33 33 33 33 34 35 36 36 36 35 34 34 34 34 35 36 37 36 35 34 32 30 28
4 4 4 5 5 6 8 9 10 10 9 8 7 7 7 9 10 12 13 14 14 15 15 14 13 12 11 12 14 17 18 19 19 20 22 24 26 27 29 30 32 34 32 28 27 27 28 28 31 31 30 30 31 32 33 33 33 33 33 34 35 36 36 35 34 33 32 30 28
8 7 5 4 4 5 7 8 10 10 10 9 9 9 8 9 10 12 13 14 15 15 15 15 13 11 9 9 12 14 16 15 13 12 13 15 16 17 19 20 23 23 23 22 22 22 24 25 27 27 27 28 27 27 28 29 31 32 33 33 34 34 34 32 30 29 28 27 25
11 11 10 9 7 6 6 8 9 10 10 11 11 11 11 11 12 14 15 15 15 15 16 15 13 11 9 8 10 12 13 13 13 13 14 15 15 16 16 17 18 17 16 14 14 15 17 19 21 21 20 20 20 21 22 24 27 29 30 31 32 31 30 27 25 23 22 21 20
13 13 13 13 12 11 9 8 8 8 9 11 12 12 12 13 14 15 16 16 16 16 17 16 14 12 10 9 9 10 10 10 11 13 15 17 18 19 19 19 17 15 14 13 13 14 14 15 17 17 18 18 18 19 20 22 23 24 25 26 27 26 25 23 20 19 18 17 17
15 16 16 15 14 13 12 11 10 10 10 10 10 11 11 11 12 12 13 15 16 17 17 16 14 12 11 11 11 11 10 11 12 13 15 17 20 22 24 23 21 19 18 18 18 17 17 16 16 16 17 17 18 19 20 21 22 23 23 22 22 22 20 19 18 18 18 17 16
16 17 17 16 15 14 13 12 13 13 13 12 11 11 10 10 9 9 10 12 14 15 15 14 13 12 13 14 14 14 14 15 16 17 17 19 22 24 26 27 25 24 23 22 22 21 20 19 18 18 18 19 20 21 21 22 22 23 22 22 20 20 19 19 19 19 19 19 18
14 16 17 17 16 15 14 13 13 14 14 14 13 12 10 10 9 9 10 11 13 14 14 13 13 14 16 17 17 18 18 19 19 19 19 20 22 24 26 27 27 26 25 25 25 24 23 22 21 20 20 21 22 22 22 22 22 21 22 21 21 20 19 19 20 20 20 20 19
12 14 15 16 16 16 15 14 14 14 14 14 13 12 11 11 11 12 13 14 15 16 15 15 16 17 18 19 19 20 20 20 20 20 20 21 22 23 25 26 26 26 25 25 25 25 24 24 23 22 21 21 22 22 22 22 21 21 21 21 21 21 20 20 20 20 20 20 20
10 12 13 14 15 16 16 16 15 15 14 15 14 14 13 12 12 13 15 17 19 19 19 19 19 19 20 20 21 21 21 20 20 20 21 22 22 23 24 25 25 25 24 24 24 24 24 24 23 22 21 21 21 22 22 21 21 21 21 21 21 21 21 20 20 20 20 21 21
11 11 12 12 13 14 15 16 16 16 16 16 16 15 15 14 14 15 16 18 20 21 21 21 21 21 21 22 22 22 22 21 21 22 22 23 24 24 25 25 25 25 25 24 24 24 24 23 23 22 21 21 21 21 22 22 22 21 21 21 21 21 21 21 21 21 21 22 23
13 12 12 11 11 12 13 13 14 14 15 16 16 16 16 16 16 16 17 18 18 19 20 21 22 22 22 22 23 23 22 22 22 22 23 24 24 24 25 25 26 26 25 24 24 24 24 23 23 22 21 21 21 22 22 22 22 22 21 21 21 21 21 21 22 22 23 24 25
14 13 13 12 12 12 12 12 12 12 12 13 15 16 17 18 18 19 19 19 18 17 17 19 21 22 23 23 23 23 23 23 23 23 23 23 23 23 24 24 25 25 25 25 24 24 23 23 22 22 22 22 22 23 23 23 23 22 22 22 22 22 22 22 23 23 24 25 26
15 15 14 14 14 13 13 12 12 12 11 11 12 12 13 15 17 19 21 21 20 18 17 18 20 22 23 23 23 23 24 24 24 24 24 24 23 22 23 23 24 24 24 24 24 23 22 22 22 22 22 23 23 24 24 25 25 24 23 22 22 22 22 22 23 24 25 26 26
14 15 15 15 14 14 14 14 13 13 13 12 12 12 12 12 12 13 16 17 19 19 18 19 20 22 23 23 23 23 24 25 25 25 25 25 24 23 23 23 23 23 24 24 23 22 22 22 22 22 23 23 24 25 25 26 25 24 23 23 22 22 22 22 23 24 25 25 25
14 14 14 13 14 14 14 14 14 14 14 14 14 14 14 15 15 14 13 13 14 15 16 18 20 22 23 23 23 24 24 25 25 26 26 26 26 25 24 23 23 23 23 23 23 23 23 23 23 23 23 24 24 25 25 25 25 24 23 23 22 22 22 22 23 24 24 24 24
16 14 13 12 12 12 13 13 14 14 14 13 13 13 13 14 16 17 18 17 16 15 14 14 16 18 20 22 23 24 25 26 27 27 27 27 27 27 26 25 24 23 23 23 23 23 23 24 24 24 24 24 24 24 24 23 23 23 23 23 22 22 22 23 24 24 24 23 23
18 17 15 13 11 11 11 12 13 13 13 13 13 13 13 13 14 16 18 19 20 19 18 17 16 16 16 17 19 21 23 26 27 29 29 29 29 29 28 27 26 25 25 24 24 24 24 24 25 25 25 25 25 25 24 23 23 22 23 23 23 23 23 24 24 24 24 23 22
20 19 18 15 13 12 11 11 11 12 12 13 13 13 13 13 14 14 15 17 18 20 21 21 21 20 19 18 18 18 20 22 26 28 30 31 31 30 30 29 28 27 27 26 25 25 25 25 25 25 25 25 25 25 24 24 23 23 23 23 23 24 24 24 24 24 24 23 23
20 20 20 18 16 14 12 11 11 11 12 12 13 14 14 15 15 15 15 15 16 17 19 20 22 23 22 22 21 20 20 21 23 26 28 30 31 31 31 31 30 30 29 28 28 27 27 27 26 26 25 25 25 25 25 24 24 24 24 24 24 24 24 24 24 24 24 23 23
20 21 20 20 18 16 14 13 12 12 13 13 14 14 15 15 16 15 15 15 15 15 16 18 19 21 22 23 23 23 23 22 22 23 25 28 30 31 31 32 32 32 32 31 31 30 29 28 27 27 26 26 26 25 25 25 25 25 24 24 24 25 25 25 24 24 24 23 22
20 21 21 21 20 19 18 16 14 13 13 14 14 15 15 16 16 16 15 15 14 14 15 16 18 19 20 21 22 23 24 24 24 23 24 25 28 30 31 32 33 33 34 33 32 31 30 29 28 27 26 26 26 26 26 26 26 26 26 25 25 24 24 24 24 24 23 22 21
20 22 22 22 22 21 20 19 17 15 14 14 14 15 15 16 16 16 16 15 15 14 14 16 17 18 19 19 20 21 21 22 23 23 23 24 25 27 29 31 32 33 34 34 33 31 30 29 27 27 26 26 26 26 26 26 27 27 27 26 26 25 24 24 23 23 22 21 20
20 21 22 22 22 22 21 20 19 17 16 15 15 15 16 16 16 16 16 16 16 15 14 15 16 17 18 19 19 19 19 20 21 22 23 24 25 26 27 29 30 31 32 32 32 30 29 28 27 26 26 26 26 26 26 26 27 27 28 27 27 26 24 24 23 22 21 21 20
19 20 21 22 22 22 21 21 21 20 18 17 16 16 16 16 16 17 17 17 17 16 15 14 15 16 17 18 18 18 18 19 19 20 22 23 25 26 27 28 29 29 30 30 30 29 28 28 27 27 26 26 26 26 26 26 26 27 28 28 27 26 25 24 23 22 22 21 20
18 19 20 20 21 21 21 21 21 21 20 19 18 17 17 16 16 17 17 17 17 17 16 15 15 16 17 17 18 18 18 19 19 20 21 22 24 25 27 28 28 28 29 29 29 28 27 26 27 27 27 27 27 26 26 26 25 25 26 26 26 26 25 24 23 22 21 21 21
18 19 20 20 20 20 20 20 20 21 20 20 19 18 17 17 17 17 17 16 16 16 15 15 15 15 16 17 17 18 18 19 19 20 21 22 23 24 25 27 27 28 28 29 28 27 26 25 25 26 26 26 27 27 26 25 24 23 23 23 24 24 24 24 23 21 20 20 20
19 20 21 21 20 19 19 19 19 19 20 20 19 18 18 17 17 17 17 16 15 15 15 15 15 16 16 16 17 18 19 19 20 20 21 22 23 23 24 25 26 27 27 28 27 26 25 24 24 25 26 26 26 26 24 23 22 21 20 20 20 21 21 21 21 20 19 19 18
19 20 22 22 22 20 19 19 19 19 19 18 18 18 18 18 18 17 17 16 15 15 16 16 16 16 16 16 16 17 18 19 20 20 21 21 22 22 23 24 25 26 26 26 26 25 24 24 24 25 25 25 25 24 22 21 21 20 19 19 19 19 19 19 19 19 19 18 17
19 20 22 23 23 22 20 19 19 19 19 18 18 18 18 19 18 18 17 16 16 16 16 16 16 17 16 16 16 16 17 18 19 20 21 21 21 21 22 23 24 25 25 25 24 23 23 23 24 25 25 24 23 23 22 21 21 20 20 20 19 18 18 18 18 18 18 18 17
20 21 21 22 23 22 21 20 20 20 19 19 18 18 19 19 19 18 17 17 17 17 17 17 17 16 16 16 16 16 17 17 19 20 20 21 21 21 21 22 23 24 24 24 23 22 22 23 24 25 25 24 23 22 22 22 21 21 20 20 19 18 18 18 18 18 18 18 17
21 21 22 22 22 22 22 21 20 20 20 19 19 19 19 19 19 18 18 17 17 17 18 18 17 17 16 16 16 16 17 17 18 19 20 20 21 21 21 22 23 23 23 22 21 21 22 23 24 25 25 24 24 23 22 22 21 20 19 19 18 18 17 18 18 19 19 19 19
22 22 22 22 22 22 22 21 20 20 20 20 20 20 20 19 18 18 18 17 17 17 18 18 18 18 17 17 17 17 17 17 18 19 20 21 21 21 21 22 22 22 22 20 20 21 22 24 24 25 25 25 24 24 23 22 21 20 19 18 17 17 17 17 18 19 19 20 20
22 22 22 22 22 22 22 22 21 21 20 21 21 21 20 19 18 18 18 17 17 17 18 19 19 19 19 18 18 18 18 18 18 19 20 21 21 21 22 22 22 22 21 21 21 22 23 24 24 25 25 24 24 23 22 21 20 19 18 17 17 17 17 17 17 18 19 20 21
22 22 22 22 22 23 23 23 23 22 22 22 22 21 20 19 18 18 18 17 17 17 18 19 19 20 20 19 19 18 18 18 18 19 20 21 21 22 22 23 23 23 22 22 22 23 24 24 25 25 24 24 23 22 21 20 19 18 18 18 17 17 17 17 17 17 19 20 22
Wind_Direction
178 182 188 196 202 207 212 217 222 224 225 225 227 230 231 230 227 224 222 223 223 224 226 227 229 230 231 232 234 237 240 242 242 241 241 240 239 238 237 236 234 233 231 229 226 223 221 219 220 224 229 234 237 238 238 239 240 241 240 237 231 226 223 224 227 232 237 241 246
139 170 191 202 208 212 213 213 219 226 230 231 233 237 240 240 238 235 233 234 236 238 240 241 240 240 240 240 241 243 247 249 247 245 242 240 239 239 239 238 237 235 232 229 226 222 220 218 218 220 224 227 230 234 236 236 237 236 236 234 231 228 226 225 226 230 234 239 244
4 244 217 209 208 210 213 218 224 231 235 238 242 246 248 248 246 244 245 247 251 256 257 255 253 251 249 249 249 250 252 254 254 251 247 242 239 237 237 237 237 235 232 229 226 223 221 218 218 219 221 223 225 228 231 234 235 234 233 232 231 229 227 227 227 229 232 236 241
317 294 269 248 232 224 225 230 236 242 247 250 252 252 253 253 252 252 253 257 261 264 264 262 260 257 256 257 257 258 258 257 257 256 252 248 243 240 237 235 234 233 231 229 226 224 222 221 219 219 220 221 222 224 227 230 231 232 232 232 231 230 228 228 228 229 229 231 235
286 281 273 262 251 245 243 246 248 252 256 259 257 254 253 254 256 256 257 259 261 264 265 264 260 257 258 262 267 269 268 266 264 261 257 254 250 246 242 238 234 232 230 228 226 224 222 221 220 219 219 220 221 222 224 226 228 230 231 232 232 231 230 229 228 227 227 226 227
261 264 264 260 256 256 256 256 255 255 256 258 256 253 254 257 259 260 260 261 262 264 264 261 257 255 259 266 271 274 275 274 271 267 263 259 256 252 248 244 241 239 235 228 223 220 220 219 218 218 219 220 221 223 224 226 227 228 230 231 232 231 230 228 226 224 223 221 219
252 254 255 253 253 255 255 254 251 248 247 247 246 249 254 258 260 261 262 262 262 261 258 254 250 251 256 263 267 269 270 269 267 264 261 258 256 253 250 247 246 246 244 235 226 220 218 217 216 217 219 221 222 224 225 226 227 228 229 229 231 230 229 226 224 221 219 216 213
290 280 267 253 246 244 245 247 246 245 244 244 243 248 254 259 259 258 258 259 257 253 249 244 240 241 246 254 259 261 260 259 257 255 253 251 251 251 250 248 248 248 246 242 239 235 231 230 232 232 229 226 225 225 226 227 228 227 227 227 229 229 227 224 222 219 216 213 210
13 4 348 316 277 250 244 248 248 248 247 246 245 248 255 260 260 258 255 252 250 247 242 235 231 231 237 247 255 256 257 258 262 262 260 258 258 258 256 253 251 249 248 248 249 249 247 246 245 244 242 241 235 229 225 225 225 225 224 225 225 225 224 222 220 218 216 213 209
1 1 360 353 338 310 276 259 252 249 246 243 244 249 257 262 261 257 253 250 248 243 235 228 226 228 235 244 252 255 258 263 269 273 274 272 270 266 262 258 254 250 249 248 250 252 252 250 248 245 242 240 238 234 230 228 226 222 220 221 221 221 220 219 219 218 217 214 211
346 346 344 341 336 329 314 291 274 264 256 251 252 256 260 262 257 251 246 243 240 234 228 224 224 227 230 231 233 237 245 255 264 269 272 273 270 264 258 253 248 242 239 240 244 246 247 246 245 244 243 243 245 245 243 240 233 227 222 219 218 217 216 217 219 220 221 220 217
335 334 332 328 324 319 312 303 294 285 278 273 268 266 265 264 255 244 235 230 227 225 223 222 224 225 223 218 216 221 233 248 258 265 270 271 266 259 252 246 240 237 237 240 242 242 241 240 241 240 241 243 245 247 247 246 242 237 231 227 221 218 216 217 222 225 227 227 225
326 326 326 323 319 312 304 298 292 286 282 279 275 271 269 266 258 247 236 227 223 222 224 227 232 231 226 220 221 230 242 250 255 260 263 263 258 251 245 241 237 236 237 239 241 239 238 237 237 237 238 239 240 242 243 242 241 238 235 233 229 226 224 223 226 228 229 228 226
320 322 323 322 319 313 304 296 288 282 277 273 269 265 263 259 254 250 246 239 233 231 235 243 246 242 234 229 232 239 245 248 251 254 255 253 249 244 240 237 236 236 236 238 238 236 235 235 236 237 238 239 239 239 238 237 236 235 234 233 231 229 227 226 226 225 224 222 220
322 322 323 323 321 316 308 299 291 284 279 274 269 264 259 253 249 248 247 247 245 246 249 254 254 248 241 237 238 241 244 247 250 251 250 247 243 239 237 236 237 237 237 236 235 233 233 235 237 239 240 240 240 239 238 237 237 236 235 234 233 230 228 225 224 222 220 218 215
333 331 330 328 325 320 314 307 300 293 287 282 277 271 263 255 250 247 247 247 248 250 253 255 256 253 248 244 242 243 244 247 249 250 248 245 242 239 238 238 239 239 238 236 234 233 234 237 239 242 243 243 243 243 243 243 243 241 240 237 235 231 228 226 224 224 223 221 216
351 346 342 339 332 325 318 312 305 298 290 286 281 275 267 260 254 249 247 247 248 250 252 255 256 254 251 248 245 245 245 247 248 248 247 245 243 242 241 242 242 242 241 238 236 236 237 240 243 246 247 248 249 249 250 250 248 246 243 240 236 233 231 230 229 228 227 224 219
359 354 349 343 336 328 322 317 311 303 293 285 278 273 269 264 258 254 250 248 247 249 253 256 256 253 249 246 245 245 245 246 247 247 247 246 245 244 243 244 244 243 242 241 239 239 240 243 246 249 251 252 254 255 255 254 252 248 244 241 237 235 234 233 233 231 229 225 220
357 352 346 340 334 329 325 322 319 314 306 295 283 274 268 263 259 256 252 249 247 249 255 260 257 251 245 242 242 244 246 247 247 247 247 247 246 245 245 244 244 244 243 242 241 240 241 243 246 249 252 254 255 256 256 255 253 249 245 241 238 236 234 233 232 230 226 222 217
356 350 344 339 335 330 326 322 319 318 317 312 302 291 280 270 262 256 251 249 249 250 255 260 260 253 244 239 238 241 245 248 249 249 248 247 247 246 245 245 244 244 244 243 241 240 240 242 245 248 251 253 254 254 253 253 251 248 244 240 237 235 232 230 228 225 222 218 214
356 350 346 343 340 336 331 325 319 313 310 308 307 307 305 298 286 272 263 259 257 256 256 257 259 255 248 241 239 241 245 249 250 249 249 249 248 248 247 246 245 245 244 243 241 240 241 242 244 246 248 249 249 249 249 248 246 244 241 238 235 232 229 226 224 221 218 215 214
356 351 348 346 344 341 337 331 325 319 313 308 304 301 300 301 300 297 291 285 277 270 263 259 258 255 251 246 244 244 246 248 249 250 250 250 250 250 250 249 247 245 243 242 241 241 243 244 245 245 245 244 244 244 243 242 241 239 237 234 231 227 224 222 220 219 217 216 215
357 355 353 350 346 342 338 335 332 329 324 319 313 308 303 300 296 293 291 290 288 284 275 268 264 260 256 252 249 246 246 246 248 250 251 250 250 251 250 249 247 244 242 241 241 241 243 243 243 243 242 241 240 240 239 238 237 235 233 229 225 221 218 217 216 216 216 216 216
359 359 357 353 347 342 339 338 336 334 332 329 324 319 313 306 300 295 291 289 287 285 282 279 275 271 268 263 258 252 248 246 246 247 248 249 249 248 248 247 246 243 242 241 241 242 243 243 242 241 240 239 238 238 238 237 235 233 229 225 219 215 212 211 211 212 212 213 213
359 360 359 357 352 347 343 341 338 336 335 333 330 326 322 316 310 305 300 294 290 287 285 283 280 277 275 274 271 266 260 253 248 245 245 245 245 245 244 243 242 242 241 242 242 243 244 245 244 242 239 237 237 236 236 235 233 230 226 221 215 210 207 206 207 208 209 209 210
357 358 358 358 357 353 349 345 341 339 337 337 335 332 329 325 321 317 312 305 299 294 289 286 283 281 279 277 275 273 270 265 258 250 245 242 241 241 240 240 240 240 240 241 242 244 245 246 246 244 241 237 235 233 231 230 229 226 222 218 213 209 206 204 204 206 207 207 209
353 354 355 357 357 356 354 351 347 344 342 340 338 335 333 329 326 323 320 316 312 306 300 295 289 285 282 279 277 275 273 271 267 260 251 244 240 237 236 237 238 239 240 242 243 244 245 244 244 244 242 238 235 231 228 225 223 220 217 214 212 210 208 206 206 206 205 205 207
350 351 352 353 355 356 355 354 351 347 343 340 337 334 331 328 326 323 321 319 317 315 312 307 300 293 288 285 282 279 276 273 270 265 258 250 243 238 236 236 237 239 241 243 244 245 245 243 241 240 239 237 234 231 227 223 219 216 214 212 212 211 210 210 209 207 204 201 202
348 348 349 350 351 352 353 352 350 346 341 336 332 328 326 324 322 320 318 316 315 314 313 311 307 303 299 295 290 285 281 276 271 265 259 253 247 242 238 237 238 240 242 243 245 246 246 244 241 238 235 234 232 229 225 221 217 214 212 212 212 212 212 211 209 206 202 199 198
346 346 347 347 347 347 348 348 347 344 340 334 328 325 322 320 319 318 316 315 312 309 307 306 305 305 303 299 295 291 286 279 273 266 259 253 249 245 242 240 240 240 242 243 244 245 246 245 243 239 235 232 230 227 223 220 216 213 211 210 211 212 212 211 209 205 201 199 199
344 344 344 344 343 343 342 342 342 342 340 336 331 326 323 320 318 317 315 315 312 309 305 302 300 300 300 298 296 293 288 282 275 267 260 254 250 247 245 243 241 241 241 242 243 244 245 245 244 241 237 232 229 225 221 218 215 212 210 208 208 208 208 208 207 205 202 201 202
340 341 341 341 339 338 337 337 337 338 337 335 332 328 324 321 318 318 317 318 316 313 309 304 300 298 298 298 297 294 290 285 279 271 264 258 252 249 246 244 242 242 242 242 242 243 242 241 241 239 235 230 225 221 218 215 213 210 208 205 204 204 204 204 204 203 203 203 204
337 337 337 337 336 334 333 332 333 333 333 331 329 326 323 321 319 320 320 319 317 313 309 305 300 297 296 296 296 295 292 288 283 276 270 263 257 252 248 245 244 243 243 243 242 242 240 237 235 233 230 225 220 217 214 212 209 206 203 201 200 200 201 202 202 202 202 204 207
334 333 333 333 332 331 329 328 328 328 327 326 324 322 321 319 318 317 317 316 312 309 305 302 298 295 293 291 291 291 290 289 286 281 276 269 263 258 253 250 248 246 245 244 243 242 239 234 229 224 221 217 214 212 208 205 202 200 198 196 196 197 199 200 200 200 202 205 209
332 331 330 329 328 328 326 325 324 323 321 320 319 318 318 317 315 313 312 311 308 305 301 299 297 296 293 290 287 285 286 285 285 283 279 274 269 263 259 255 253 251 249 247 245 242 238 231 224 218 214 211 209 206 201 198 197 197 197 196 196 196 197 197 198 199 201 205 208
330 329 327 326 325 324 324 322 320 319 317 315 314 314 314 314 312 310 308 307 305 302 299 297 296 296 294 291 287 283 281 281 281 281 280 276 271 265 261 258 256 254 252 250 247 242 236 227 219 213 210 207 204 200 197 195 195 197 198 198 198 198 198 197 197 199 200 201 202
327 326 324 322 321 320 320 319 318 316 313 311 310 310 311 311 309 308 307 306 303 300 298 296 295 293 291 290 288 284 281 278 277 277 276 273 269 264 259 256 254 253 252 250 245 239 231 222 214 209 206 203 199 196 194 194 195 196 197 198 199 200 201 200 200 200 199 196 193
322 321 320 319 317 316 316 315 314 311 309 307 306 306 307 307 307 306 306 305 302 299 296 294 292 290 289 289 287 285 282 278 274 272 270 267 264 259 255 252 251 250 249 246 240 232 223 216 211 207 204 201 197 195 193 192 192 193 194 196 198 201 203 204 204 203 200 195 189
318 317 317 315 314 312 312 311 308 307 305 304 303 303 303 303 302 303 304 303 300 297 294 292 290 289 288 287 285 283 281 277 272 268 264 261 258 255 251 247 246 245 243 238 231 223 216 211 208 206 204 201 198 195 193 191 189 189 190 193 196 199 204 206 207 205 202 198 193
315 315 314 313 311 310 308 307 305 303 303 302 301 300 299 298 297 299 300 299 297 294 292 290 289 288 287 285 282 280 278 275 270 265 260 257 253 250 247 243 241 240 237 230 223 216 211 208 206 204 203 201 199 196 192 190 188 186 187 190 192 195 200 204 207 207 206 204 201
313 313 313 311 310 309 307 305 304 304 303 302 301 298 296 295 294 295 296 296 295 293 291 289 287 286 285 282 279 277 275 272 269 264 258 253 249 245 242 239 237 234 231 225 217 212 208 206 204 204 203 201 200 197 193 190 187 185 186 189 192 194 196 199 204 207 208 208 206
Height
749 749 750 752 752 754 755 755 756 757 757 757 758 758 758 758 758 758 758 759 759 760 761 762 762 764 765 766 767 767 768 768 768 769 771 773 774 775 776 776 777 777 777 777 777 778 778 778 780 782 783 785 787 788 789 790 791 792 791 789 785 782 781 782 784 786 788 789 790
748 750 751 752 753 754 754 755 756 756 757 757 757 757 758 758 758 758 757 757 758 758 759 759 761 762 763 764 765 766 766 767 768 769 771 772 772 773 773 774 774 775 775 775 775 775 776 776 777 778 779 781 783 784 786 787 787 788 787 785 782 781 780 779 780 782 784 786 787
748 750 751 752 752 753 754 755 756 756 756 757 757 757 757 757 757 757 756 756 756 757 757 758 759 760 761 762 764 765 766 767 768 769 770 771 771 771 771 771 772 772 772 772 772 772 773 774 774 775 776 777 778 780 782 783 784 784 783 782 780 779 778 777 777 778 779 781 783
749 750 751 752 752 753 754 754 755 755 756 756 756 756 756 756 756 755 755 755 755 756 756 757 758 759 760 762 763 764 765 767 768 769 769 769 769 769 769 769 769 769 769 770 770 770 770 771 772 772 772 773 774 775 777 778 780 781 780 779 778 777 776 775 775 775 775 777 778
749 749 750 751 752 752 753 753 754 754 754 755 755 755 755 755 755 754 754 754 755 756 756 757 757 758 760 761 762 764 765 766 767 767 767 767 767 767 767 767 768 768 767 767 767 767 767 768 769 769 770 770 771 771 772 774 776 777 777 776 776 775 774 773 773 772 772 773 774
749 749 750 750 751 752 752 752 753 753 753 753 754 754 754 754 754 754 754 754 755 756 756 757 757 758 759 760 762 763 764 764 765 765 764 764 764 765 765 765 766 767 767 767 766 765 765 766 767 767 767 768 768 768 769 770 772 772 773 774 773 773 772 771 771 770 770 770 770
749 749 749 750 750 751 751 752 752 752 753 753 753 754 754 754 754 754 754 754 755 756 756 757 757 757 758 760 761 762 763 763 763 763 762 762 762 763 763 763 764 765 766 766 765 765 764 764 765 766 766 767 767 767 767 768 768 769 770 771 771 772 771 770 769 768 767 767 766
748 748 749 749 750 750 751 752 752 752 753 752 753 753 754 754 754 754 754 754 755 755 756 756 757 757 758 760 761 762 762 762 762 762 762 762 762 762 762 762 763 764 764 765 764 764 764 763 764 765 765 765 765 765 765 765 766 767 767 768 769 770 770 769 767 767 766 764 763
748 748 749 749 750 750 750 751 752 752 752 752 753 753 754 754 754 754 754 754 754 755 755 756 757 757 758 759 760 761 762 762 762 762 762 762 762 762 762 762 762 763 763 764 764 763 763 763 764 764 764 764 763 763 763 763 764 764 764 765 767 768 769 768 767 766 765 763 761
747 748 748 749 750 750 750 751 751 751 752 752 753 753 753 753 753 753 753 753 754 754 755 756 757 757 758 758 759 760 761 762 762 762 762 762 762 762 762 762 762 762 762 763 763 764 764 764 764 763 763 763 763 762 762 762 763 762 762 763 765 766 767 767 766 766 766 765 762
747 747 747 748 749 750 751 751 751 752 752 752 752 753 753 753 752 752 752 752 753 754 755 755 756 756 757 758 759 760 761 762 762 762 762 762 762 762 762 762 762 762 762 762 763 763 763 763 763 763 763 762 762 762 762 762 762 762 761 762 763 763 764 764 764 765 766 765 764
746 746 747 747 748 749 750 750 751 752 752 752 752 752 752 752 752 752 752 752 752 753 754 755 755 756 756 757 758 759 759 760 760 760 760 759 760 760 760 760 761 761 761 761 762 762 762 762 762 762 762 762 762 762 762 762 762 762 762 762 762 762 761 761 762 762 763 764 764
746 746 746 747 747 748 748 749 749 750 751 751 751 751 751 751 750 751 752 752 752 753 754 754 755 756 756 757 757 757 757 757 757 757 756 756 757 757 758 759 759 759 760 760 761 761 761 761 760 760 760 760 760 760 761 761 761 762 762 761 761 760 760 759 759 760 761 762 762
746 746 746 746 747 747 747 748 748 749 749 749 749 749 749 749 749 750 751 752 753 753 754 754 755 756 756 756 756 756 756 756 756 756 755 755 755 756 757 757 758 758 758 759 759 760 760 759 759 759 759 759 759 759 759 760 760 760 761 760 760 759 758 758 758 758 760 761 761
744 745 745 745 745 746 747 747 747 748 747 747 747 747 747 747 748 749 751 752 752 753 753 753 754 754 755 755 755 755 756 756 756 755 755 755 755 755 756 756 757 757 757 757 758 758 758 758 758 757 757 758 758 758 758 758 759 759 759 758 758 757 757 757 757 757 758 759 760
743 743 743 743 743 744 745 746 746 747 747 746 746 746 746 747 747 748 749 750 751 752 752 752 752 753 753 753 754 754 755 755 755 755 754 754 754 754 755 755 755 756 756 756 757 757 757 757 757 756 756 756 757 757 757 757 757 757 757 757 756 756 756 756 756 757 758 759 760
742 742 742 742 743 744 745 745 746 746 746 746 746 746 746 746 747 747 748 749 749 750 750 751 751 752 752 752 753 753 753 753 753 753 753 753 753 753 754 754 754 754 754 755 755 755 755 755 755 755 755 755 755 754 754 754 755 755 755 755 755 755 755 755 755 756 757 758 759
741 742 742 742 743 744 745 746 746 746 746 746 746 746 746 746 746 747 747 747 748 749 749 750 750 750 750 751 751 751 752 752 752 752 752 752 752 752 752 752 752 752 753 753 753 753 753 753 754 754 753 753 753 753 753 753 753 754 754 754 754 754 754 754 754 755 756 757 758
742 742 743 744 744 744 745 745 745 746 746 746 746 745 745 745 745 746 746 746 747 747 748 749 749 749 749 749 749 749 750 750 751 751 751 752 752 752 751 751 751 751 751 752 752 752 752 752 752 752 752 752 752 752 752 752 752 753 753 753 753 753 753 754 754 754 755 756 757
744 744 744 744 744 744 744 745 745 745 745 745 745 745 745 745 745 745 745 745 745 746 747 747 748 748 747 747 747 747 748 748 749 750 750 750 750 750 750 750 750 750 750 750 750 750 751 751 751 752 752 752 752 752 752 752 752 752 752 752 752 752 753 753 753 754 754 755 756
745 745 745 744 744 744 744 744 744 744 744 744 744 744 744 744 745 745 745 745 745 745 746 746 747 747 747 746 746 746 746 746 747 748 748 749 749 749 749 749 749 749 749 749 749 749 749 750 750 750 750 751 751 751 751 751 751 752 751 751 751 752 752 752 753 754 754 755 755
746 746 745 745 744 744 744 744 744 744 743 743 743 743 743 743 744 744 744 745 745 745 745 745 745 745 745 745 745 745 745 745 745 746 747 747 748 748 748 748 748 748 748 748 748 748 749 749 749 749 749 750 750 750 750 751 751 751 751 751 751 751 751 752 752 753 754 754 755
747 746 745 745 745 745 744 744 744 743 743 743 743 742 742 743 743 743 743 743 743 744 744 744 744 744 744 744 744 744 744 744 744 744 744 745 746 746 747 747 747 747 747 747 747 747 747 748 748 748 748 748 749 749 749 750 750 750 750 750 750 750 751 751 752 752 753 753 754
747 747 746 745 745 745 744 744 744 743 743 742 742 742 742 742 742 742 742 742 742 742 742 742 742 742 743 743 743 743 743 742 742 742 742 743 743 744 745 745 745 745 745 745 746 746 746 746 747 747 747 747 747 748 748 748 749 749 749 749 750 750 750 750 751 751 752 752 753
747 747 746 746 745 745 744 744 744 744 743 742 742 741 741 741 741 741 741 741 741 741 741 741 741 741 741 741 742 742 742 742 741 741 740 741 741 742 742 743 743 743 743 743 744 744 744 745 745 745 745 746 746 746 747 747 747 748 748 749 749 749 749 750 750 751 751 752 752
748 747 747 746 746 745 745 744 744 744 743 742 741 741 740 740 740 740 740 740 740 740 740 740 740 740 740 740 741 741 741 741 741 740 740 739 739 739 740 740 741 741 741 741 742 742 742 743 743 743 744 744 744 745 745 745 746 746 747 748 748 748 748 748 749 750 750 751 751
749 748 747 746 746 745 744 744 743 743 742 742 741 740 740 739 739 739 739 739 739 739 739 739 739 739 739 739 739 740 740 740 740 740 739 739 738 738 738 738 738 738 739 739 740 740 740 741 741 742 742 742 742 743 743 743 744 744 745 746 747 747 747 747 747 748 749 750 750
749 748 747 746 745 744 744 743 742 742 742 741 741 740 739 739 739 738 738 738 738 738 738 738 737 737 737 737 738 738 738 738 738 739 739 738 738 737 736 736 736 737 737 737 738 738 739 739 740 740 740 741 741 741 742 742 742 742 743 744 746 746 746 747 747 747 748 748 749
749 747 747 746 745 744 743 742 742 742 741 741 740 740 739 739 738 738 738 737 737 737 737 737 737 736 736 736 736 737 737 737 737 737 737 737 737 737 736 735 735 735 735 736 736 737 738 738 739 739 739 739 740 740 741 741 740 740 741 742 744 745 745 746 746 747 747 748 748
749 748 747 746 745 744 744 743 742 742 741 741 740 740 739 739 738 738 737 737 737 737 737 737 736 736 736 736 735 736 736 736 736 736 736 736 736 736 735 735 734 734 734 734 735 735 737 737 738 738 738 738 738 739 740 740 739 739 739 740 741 742 744 744 745 746 746 747 747
750 749 748 747 746 745 744 744 743 742 741 741 740 739 739 738 738 738 737 737 737 736 736 736 736 735 735 735 735 735 735 734 735 734 734 734 734 734 734 734 734 733 733 733 734 734 735 736 737 737 737 737 737 737 738 738 738 738 737 738 739 740 741 742 743 744 745 745 746
751 750 749 748 747 746 745 744 743 743 742 741 740 739 739 738 738 737 737 737 736 736 735 735 735 735 734 734 734 734 734 733 733 733 733 733 733 732 732 732 732 732 732 732 732 733 733 734 735 736 736 735 735 736 737 737 737 737 737 737 737 738 739 740 741 742 743 743 744
752 751 750 749 748 747 746 745 744 743 742 742 741 740 739 738 737 737 736 736 736 735 735 734 734 734 733 733 733 733 732 732 732 732 732 732 732 732 731 731 731 731 731 731 731 732 732 733 733 734 734 734 734 734 735 736 737 737 737 737 737 737 737 738 740 741 742 743 743
752 752 751 750 749 748 747 746 745 744 743 742 741 741 740 739 737 737 736 736 735 735 734 734 733 733 733 732 732 732 732 732 731 731 731 731 731 731 730 730 729 729 729 730 730 730 731 732 732 733 733 733 733 733 733 735 736 737 737 738 738 737 737 738 739 740 741 742 743
753 752 751 750 749 748 747 747 746 745 744 743 742 741 740 739 738 737 736 735 735 734 733 733 732 732 732 732 732 732 731 731 730 730 730 730 730 729 729 729 728 728 728 728 729 729 730 730 731 731 732 732 732 732 733 734 735 736 737 738 738 738 738 738 739 740 741 741 742
753 752 751 750 749 748 747 747 746 745 744 743 742 741 740 739 738 737 736 735 734 733 733 732 732 731 731 731 731 731 730 730 730 729 729 729 729 728 728 727 727 727 727 727 728 728 729 729 730 730 730 730 730 731 732 732 733 735 736 737 737 738 738 739 740 740 741 741 741
753 752 752 750 749 748 747 747 746 745 744 743 742 741 740 739 738 737 736 735 734 733 732 732 731 731 730 730 730 730 729 729 729 729 728 728 728 727 727 727 726 726 726 727 727 727 728 728 728 728 729 729 729 730 730 731 732 733 734 735 736 737 737 738 739 740 741 741 741
753 752 752 750 749 748 747 746 745 744 743 742 741 740 740 739 737 737 736 735 734 733 732 731 731 730 730 729 729 728 728 728 728 728 728 727 727 727 726 726 726 725 725 726 726 727 727 727 728 728 727 728 728 728 729 729 730 731 732 733 734 735 736 737 738 740 741 741 741
753 752 751 750 749 748 747 746 745 744 743 742 741 740 739 738 737 736 735 735 734 733 732 731 730 729 729 729 728 727 727 727 727 727 727 726 726 726 726 725 725 725 725 725 725 726 726 727 727 727 727 727 727 727 727 728 729 730 731 732 733 734 735 736 737 738 739 740 741
752 752 751 750 749 747 747 745 744 743 743 742 740 739 738 737 737 736 735 734 733 732 732 731 730 729 728 728 727 727 726 726 726 726 726 726 725 725 725 724 724 724 724 724 725 725 725 726 726 727 727 727 727 727 727 727 727 728 729 730 732 732 733 734 735 736 737 738 739
752 751 750 749 748 747 746 745 743 742 742 741 740 739 738 737 736 735 734 733 732 732 731 730 729 728 727 727 726 726 725 724 724 724 725 725 724 724 723 723 723 723 723 724 724 724 724 725 725 726 726 726 726 726 726 726 727 727 728 729 730 731 732 733 733 734 735 737 738